 day,  time,  air_temp(C),  RH(%),  ground_temp10cm(C),  ground_temp20cm(C),  ground_temp40cm(C),  precipitation(mm/h),  Solar_Radiation(MJ/m2h),  lack, 
 01/06/01, 01:00,   9.2,  99,  13.5,  14.0,  13.5,   0.0,  0.00, 
 01/06/01, 02:00,   9.1,  97,  13.3,  13.9,  13.5,   0.0,  0.00, 
 01/06/01, 03:00,   9.0,  94,  13.2,  13.9,  13.5,   0.0,  0.00, 
 01/06/01, 04:00,   9.0,  90,  13.0,  13.8,  13.4,   0.0,  0.00, 
 01/06/01, 05:00,   8.5,  92,  12.7,  13.6,  13.4,   0.0,  0.00, 
 01/06/01, 06:00,   8.1,  99,  12.4,  13.6,  13.4,   0.0,  0.21, 
 01/06/01, 07:00,   9.7,  84,  12.3,  13.6,  13.4,   0.0,  1.16, 
 01/06/01, 08:00,  10.8,  76,  12.6,  13.5,  13.4,   0.0,  1.93, 
 01/06/01, 09:00,  12.4,  54,  13.3,  13.4,  13.4,   0.0,  2.46, 
 01/06/01, 10:00,  12.8,  52,  14.0,  13.4,  13.5,   0.0,  2.94, 
 01/06/01, 11:00,  14.7,  52,  14.8,  13.4,  13.5,   0.0,  3.36, 
 01/06/01, 12:00,  14.7,  35,  16.2,  13.5,  13.5,   0.0,  3.54, 
 01/06/01, 13:00,  16.6,  36,  17.3,  13.7,  13.5,   0.0,  3.44, 
 01/06/01, 14:00,  17.2,  39,  17.5,  14.0,  13.4,   0.0,  3.28, 
 01/06/01, 15:00,  15.3,  40,  17.4,  14.2,  13.4,   0.5,  2.04, 
 01/06/01, 16:00,  14.1,  51,  17.2,  14.5,  13.4,   0.0,  1.27, 
 01/06/01, 17:00,  12.9,  52,  17.0,  14.6,  13.4,   0.0,  1.04, 
 01/06/01, 18:00,  12.7,  51,  16.8,  14.8,  13.4,   0.0,  0.75, 
 01/06/01, 19:00,  11.1,  60,  16.5,  14.9,  13.4,   0.0,  0.31, 
 01/06/01, 20:00,  10.8,  49,  16.0,  14.9,  13.4,   0.0,  0.00, 
 01/06/01, 21:00,   9.2,  60,  15.5,  14.9,  13.4,   0.0,  0.00, 
 01/06/01, 22:00,   7.4,  75,  15.2,  14.9,  13.5,   0.0,  0.00, 
 01/06/01, 23:00,   9.0,  59,  14.6,  14.9,  13.5,   0.0,  0.00, 
 01/06/02, 00:00,  10.7,  46,  14.2,  14.8,  13.4,   0.0,  0.00, 
 01/06/02, 01:00,  10.7,  38,  13.8,  14.6,  13.4,   0.0,  0.00, 
 01/06/02, 02:00,  10.3,  40,  13.5,  14.5,  13.4,   0.0,  0.00, 
 01/06/02, 03:00,  10.1,  42,  13.2,  14.4,  13.4,   0.0,  0.00, 
 01/06/02, 04:00,   9.7,  43,  13.0,  14.3,  13.5,   0.0,  0.00, 
 01/06/02, 05:00,   9.5,  44,  12.7,  14.1,  13.5,   0.0,  0.00, 
 01/06/02, 06:00,  10.3,  43,  12.4,  14.0,  13.5,   0.0,  0.16, 
 01/06/02, 07:00,  11.1,  40,  12.3,  13.9,  13.5,   0.0,  0.39, 
 01/06/02, 08:00,  12.8,  39,  12.3,  13.7,  13.5,   0.0,  0.91, 
 01/06/02, 09:00,  12.7,  47,  12.5,  13.6,  13.5,   0.0,  1.15, 
 01/06/02, 10:00,  13.7,  39,  12.8,  13.5,  13.5,   0.0,  1.46, 
 01/06/02, 11:00,  16.2,  43,  13.3,  13.5,  13.5,   0.0,  2.77, 
 01/06/02, 12:00,  16.6,  52,  14.4,  13.5,  13.5,   0.0,  3.10, 
 01/06/02, 13:00,  12.1,  76,  15.6,  13.5,  13.4,   0.0,  1.44, 
 01/06/02, 14:00,  14.5,  72,  15.9,  13.6,  13.5,   0.0,  1.60, 
 01/06/02, 15:00,  12.3,  88,  15.9,  13.8,  13.5,   0.0,  0.68, 
 01/06/02, 16:00,  15.5,  69,  15.8,  14.0,  13.5,   0.0,  2.42, 
 01/06/02, 17:00,  14.7,  65,  15.9,  14.1,  13.5,   0.0,  1.66, 
 01/06/02, 18:00,  12.7,  71,  15.9,  14.2,  13.5,   0.0,  0.74, 
 01/06/02, 19:00,  11.4,  80,  15.7,  14.3,  13.5,   0.0,  0.18, 
 01/06/02, 20:00,   9.4,  92,  15.3,  14.4,  13.5,   0.0,  0.00, 
 01/06/02, 21:00,   9.6,  86,  14.9,  14.4,  13.5,   0.0,  0.00, 
 01/06/02, 22:00,   7.0,  98,  14.5,  14.4,  13.4,   0.0,  0.00, 
 01/06/02, 23:00,   6.8,  98,  14.1,  14.4,  13.4,   0.0,  0.00, 
 01/06/03, 00:00,   7.4,  90,  13.7,  14.3,  13.5,   0.0,  0.00, 
 01/06/03, 01:00,   5.8,  88,  13.4,  14.3,  13.4,   0.0,  0.00, 
 01/06/03, 02:00,   5.3,  85,  12.9,  14.2,  13.4,   0.0,  0.00, 
 01/06/03, 03:00,   5.8,  76,  12.6,  14.0,  13.4,   0.5,  0.00, 
 01/06/03, 04:00,   9.3,  44,  12.2,  13.9,  13.4,   0.0,  0.00, 
 01/06/03, 05:00,  11.2,  38,  12.0,  13.7,  13.4,   0.0,  0.00, 
 01/06/03, 06:00,  10.5,  48,  11.7,  13.6,  13.4,   0.0,  0.25, 
 01/06/03, 07:00,  13.4,  48,  11.6,  13.5,  13.4,   0.0,  1.16, 
 01/06/03, 08:00,  14.6,  37,  11.9,  13.3,  13.4,   0.0,  1.91, 
 01/06/03, 09:00,  15.1,  29,  12.6,  13.2,  13.5,   0.0,  2.58, 
 01/06/03, 10:00,  16.0,  34,  13.5,  13.2,  13.4,   0.0,  3.17, 
 01/06/03, 11:00,  17.5,  29,  14.5,  13.2,  13.4,   0.0,  3.35, 
 01/06/03, 12:00,  19.3,  32,  16.0,  13.3,  13.5,   0.0,  3.64, 
 01/06/03, 13:00,  19.0,  26,  17.5,  13.5,  13.4,   0.0,  3.61, 
 01/06/03, 14:00,  20.3,  33,  17.8,  13.8,  13.4,   0.0,  3.30, 
 01/06/03, 15:00,  19.8,  35,  17.5,  14.1,  13.4,   0.0,  2.83, 
 01/06/03, 16:00,  20.3,  35,  17.4,  14.4,  13.4,   0.0,  2.10, 
 01/06/03, 17:00,  19.7,  40,  17.6,  14.6,  13.4,   0.0,  1.45, 
 01/06/03, 18:00,  17.3,  49,  17.6,  14.8,  13.4,   0.0,  0.77, 
 01/06/03, 19:00,  14.7,  59,  17.3,  14.9,  13.4,   0.0,  0.17, 
 01/06/03, 20:00,  12.2,  70,  16.8,  15.0,  13.4,   0.0,  0.00, 
 01/06/03, 21:00,  11.4,  72,  16.4,  15.1,  13.4,   0.0,  0.00, 
 01/06/03, 22:00,  13.5,  60,  15.9,  15.1,  13.4,   0.0,  0.00, 
 01/06/03, 23:00,  14.5,  49,  15.5,  15.1,  13.4,   0.0,  0.00, 
 01/06/04, 00:00,  14.2,  47,  15.2,  15.0,  13.5,   0.0,  0.00, 
 01/06/04, 01:00,  14.1,  51,  14.8,  15.0,  13.5,   0.0,  0.00, 
 01/06/04, 02:00,  13.8,  54,  14.5,  14.9,  13.5,   0.0,  0.00, 
 01/06/04, 03:00,  13.3,  56,  14.3,  14.8,  13.5,   0.0,  0.00, 
 01/06/04, 04:00,  13.3,  55,  14.0,  14.7,  13.5,   0.0,  0.00, 
 01/06/04, 05:00,  12.5,  57,  13.7,  14.5,  13.5,   0.0,  0.00, 
 01/06/04, 06:00,  14.3,  45,  13.5,  14.5,  13.5,   0.0,  0.25, 
 01/06/04, 07:00,  15.9,  40,  13.4,  14.4,  13.5,   0.0,  1.05, 
 01/06/04, 08:00,  17.8,  35,  13.6,  14.2,  13.5,   0.0,  1.80, 
 01/06/04, 09:00,  18.4,  36,  14.1,  14.2,  13.5,   0.0,  2.43, 
 01/06/04, 10:00,  20.4,  40,  14.9,  14.1,  13.5,   0.0,  2.99, 
 01/06/04, 11:00,  21.2,  42,  16.0,  14.1,  13.5,   0.0,  3.19, 
 01/06/04, 12:00,  21.7,  40,  17.3,  14.2,  13.6,   0.0,  3.47, 
 01/06/04, 13:00,  21.9,  37,  18.7,  14.4,  13.6,   0.0,  3.46, 
 01/06/04, 14:00,  23.1,  37,  19.0,  14.7,  13.6,   0.0,  3.06, 
 01/06/04, 15:00,  23.1,  37,  18.8,  15.0,  13.6,   0.0,  2.73, 
 01/06/04, 16:00,  22.6,  38,  18.8,  15.3,  13.6,   0.0,  2.08, 
 01/06/04, 17:00,  21.2,  40,  18.9,  15.5,  13.6,   0.0,  1.32, 
 01/06/04, 18:00,  20.1,  41,  18.9,  15.7,  13.6,   0.0,  0.81, 
 01/06/04, 19:00,  18.7,  44,  18.5,  15.8,  13.6,   0.0,  0.14, 
 01/06/04, 20:00,  15.3,  60,  18.0,  15.9,  13.6,   0.0,  0.00, 
 01/06/04, 21:00,  13.6,  68,  17.7,  16.0,  13.7,   0.0,  0.00, 
 01/06/04, 22:00,  13.3,  68,  17.1,  16.0,  13.7,   0.5,  0.00, 
 01/06/04, 23:00,  13.4,  65,  16.8,  16.0,  13.7,   0.0,  0.00, 
 01/06/05, 00:00,  14.0,  61,  16.4,  15.9,  13.8,   0.0,  0.00, 
 01/06/05, 01:00,  13.2,  70,  16.0,  15.9,  13.8,   0.0,  0.00, 
 01/06/05, 02:00,  14.7,  63,  15.6,  15.8,  13.8,   0.0,  0.00, 
 01/06/05, 03:00,  15.4,  66,  15.5,  15.7,  13.8,   0.0,  0.00, 
 01/06/05, 04:00,  14.5,  74,  15.3,  15.6,  13.8,   0.0,  0.00, 
 01/06/05, 05:00,  13.8,  81,  15.1,  15.5,  13.8,   0.0,  0.00, 
 01/06/05, 06:00,  14.6,  80,  14.8,  15.4,  13.8,   0.0,  0.20, 
 01/06/05, 07:00,  16.2,  77,  14.9,  15.3,  13.8,   0.0,  0.57, 
 01/06/05, 08:00,  16.6,  75,  15.1,  15.2,  14.0,   0.0,  0.83, 
 01/06/05, 09:00,  17.2,  75,  15.2,  15.1,  14.0,   0.0,  0.89, 
 01/06/05, 10:00,  18.9,  72,  15.6,  15.1,  14.0,   0.0,  1.77, 
 01/06/05, 11:00,  19.2,  72,  16.2,  15.0,  14.0,   0.0,  2.19, 
 01/06/05, 12:00,  20.4,  64,  16.9,  15.1,  14.0,   0.0,  2.52, 
 01/06/05, 13:00,  21.6,  65,  17.7,  15.1,  14.0,   0.0,  2.13, 
 01/06/05, 14:00,  20.8,  68,  18.2,  15.3,  14.0,   0.0,  2.07, 
 01/06/05, 15:00,  19.8,  64,  18.6,  15.4,  14.0,   0.0,  1.71, 
 01/06/05, 16:00,  17.2,  76,  18.7,  15.6,  14.0,   0.0,  0.70, 
 01/06/05, 17:00,  13.9,  99,  18.7,  15.8,  14.0,   1.0,  0.17, 
 01/06/05, 18:00,  12.9,  98,  18.4,  15.9,  14.0,   1.0,  0.12, 
 01/06/05, 19:00,  11.7,  99,  17.9,  16.1,  13.9,   0.5,  0.01, 
 01/06/05, 20:00,  11.4,  99,  17.5,  16.1,  14.0,   1.5,  0.00, 
 01/06/05, 21:00,  11.4,  99,  17.0,  16.1,  14.0,   1.0,  0.00, 
 01/06/05, 22:00,  11.5,  99,  16.7,  16.1,  14.1,   1.0,  0.00, 
 01/06/05, 23:00,  11.6,  99,  16.4,  16.1,  14.0,   1.0,  0.00, 
 01/06/06, 00:00,  11.6,  99,  16.2,  16.0,  14.0,   0.0,  0.00, 
 01/06/06, 01:00,  11.8,  99,  16.0,  15.9,  14.0,   0.0,  0.00, 
 01/06/06, 02:00,  11.8,  99,  15.7,  15.9,  14.2,   0.0,  0.00, 
 01/06/06, 03:00,  11.9,  99,  15.6,  15.8,  14.2,   0.0,  0.00, 
 01/06/06, 04:00,  12.1,  99,  15.5,  15.7,  14.2,   0.0,  0.00, 
 01/06/06, 05:00,  12.9,  99,  15.2,  15.6,  14.2,   0.0,  0.00, 
 01/06/06, 06:00,  13.4,  99,  15.2,  15.5,  14.2,   0.5,  0.09, 
 01/06/06, 07:00,  14.3,  99,  15.2,  15.4,  14.1,   0.0,  0.32, 
 01/06/06, 08:00,  14.3,  99,  15.2,  15.3,  14.2,   0.0,  0.39, 
 01/06/06, 09:00,  14.5,  99,  15.3,  15.3,  14.2,   0.0,  0.40, 
 01/06/06, 10:00,  15.2,  99,  15.6,  15.3,  14.2,   0.0,  0.57, 
 01/06/06, 11:00,  15.2,  99,  15.6,  15.2,  14.2,   1.0,  0.50, 
 01/06/06, 12:00,  15.2,  99,  15.8,  15.2,  14.3,   4.0,  0.38, 
 01/06/06, 13:00,  15.6,  99,  15.9,  15.2,  14.3,   2.5,  0.38, 
 01/06/06, 14:00,  15.7,  99,  16.0,  15.3,  14.3,   1.5,  0.44, 
 01/06/06, 15:00,  15.8,  99,  16.2,  15.3,  14.3,   1.0,  0.40, 
 01/06/06, 16:00,  15.6,  99,  16.2,  15.2,  14.2,   0.5,  0.33, 
 01/06/06, 17:00,  15.2,  99,  16.3,  15.4,  14.3,   0.5,  0.15, 
 01/06/06, 18:00,  14.7,  99,  16.3,  15.4,  14.2,   0.0,  0.02, 
 01/06/06, 19:00,  14.8,  99,  16.2,  15.4,  14.3,   0.0,  0.00, 
 01/06/06, 20:00,  14.5,  99,  16.1,  15.5,  14.3,   1.0,  0.00, 
 01/06/06, 21:00,  14.3,  99,  15.8,  15.5,  14.3,   0.5,  0.00, 
 01/06/06, 22:00,  14.2,  99,  15.7,  15.5,  14.2,   0.0,  0.00, 
 01/06/06, 23:00,  13.8,  99,  15.6,  15.4,  14.4,   0.0,  0.00, 
 01/06/07, 00:00,  14.0,  99,  15.6,  15.4,  14.3,   1.0,  0.00, 
 01/06/07, 01:00,  14.0,  99,  15.5,  15.4,  14.4,   0.5,  0.00, 
 01/06/07, 02:00,  14.0,  99,  15.3,  15.3,  14.4,   0.0,  0.00, 
 01/06/07, 03:00,  13.7,  99,  15.2,  15.2,  14.3,   0.0,  0.00, 
 01/06/07, 04:00,  13.7,  99,  15.2,  15.3,  14.4,   0.0,  0.00, 
 01/06/07, 05:00,  13.6,  99,  15.2,  15.2,  14.4,   0.5,  0.00, 
 01/06/07, 06:00,  13.7,  99,  15.0,  15.2,  14.4,   0.0,  0.03, 
 01/06/07, 07:00,  14.0,  99,  15.1,  15.1,  14.4,   0.0,  0.18, 
 01/06/07, 08:00,  13.8,  99,  15.1,  15.1,  14.4,   0.0,  0.27, 
 01/06/07, 09:00,  14.7,  99,  15.2,  15.1,  14.4,   0.5,  0.75, 
 01/06/07, 10:00,  14.8,  98,  15.4,  15.0,  14.3,   0.0,  0.85, 
 01/06/07, 11:00,  14.3,  99,  15.6,  15.0,  14.3,   0.5,  0.37, 
 01/06/07, 12:00,  15.2,  97,  15.8,  15.1,  14.4,   0.0,  1.82, 
 01/06/07, 13:00,  16.8,  93,  16.3,  15.1,  14.3,   0.0,  1.54, 
 01/06/07, 14:00,  19.2,  81,  16.8,  15.2,  14.4,   0.0,  2.82, 
 01/06/07, 15:00,  18.4,  81,  17.1,  15.2,  14.4,   0.5,  1.74, 
 01/06/07, 16:00,  17.7,  85,  17.4,  15.3,  14.4,   0.0,  1.67, 
 01/06/07, 17:00,  18.4,  83,  17.7,  15.5,  14.4,   0.0,  1.44, 
 01/06/07, 18:00,  16.6,  93,  17.9,  15.6,  14.4,   0.0,  1.17, 
 01/06/07, 19:00,  14.7,  99,  17.9,  15.6,  14.4,   0.0,  0.25, 
 01/06/07, 20:00,  14.0,  99,  17.7,  15.8,  14.4,   0.0,  0.00, 
 01/06/07, 21:00,  13.8,  99,  17.5,  15.9,  14.4,   0.0,  0.00, 
 01/06/07, 22:00,  13.4,  99,  17.2,  16.0,  14.4,   0.0,  0.00, 
 01/06/07, 23:00,  13.3,  99,  16.8,  16.0,  14.4,   0.0,  0.00, 
 01/06/08, 00:00,  13.1,  99,  16.6,  16.0,  14.4,   0.0,  0.00, 
 01/06/08, 01:00,  12.9,  99,  16.5,  16.0,  14.4,   0.0,  0.00, 
 01/06/08, 02:00,  12.5,  99,  16.4,  15.9,  14.5,   0.0,  0.00, 
 01/06/08, 03:00,  12.2,  99,  16.2,  15.9,  14.5,   0.0,  0.00, 
 01/06/08, 04:00,  12.2,  99,  15.9,  15.7,  14.5,   0.0,  0.00, 
 01/06/08, 05:00,  11.5,  99,  15.6,  15.7,  14.5,   0.0,  0.00, 
 01/06/08, 06:00,  12.2,  99,  15.4,  15.6,  14.5,   0.0,  0.26, 
 01/06/08, 07:00,  13.8,  96,  15.3,  15.6,  14.5,   0.0,  1.24, 
 01/06/08, 08:00,  14.7,  92,  15.6,  15.6,  14.5,   0.0,  1.70, 
 01/06/08, 09:00,  15.6,  89,  15.9,  15.5,  14.5,   0.0,  1.32, 
 01/06/08, 10:00,  17.3,  85,  16.4,  15.5,  14.5,   0.0,  2.43, 
 01/06/08, 11:00,  18.9,  79,  17.1,  15.5,  14.6,   0.0,  2.21, 
 01/06/08, 12:00,  20.4,  69,  17.9,  15.6,  14.6,   0.0,  2.30, 
 01/06/08, 13:00,  21.2,  71,  18.7,  15.7,  14.6,   0.0,  3.43, 
 01/06/08, 14:00,  22.5,  64,  19.4,  15.9,  14.6,   0.0,  3.42, 
 01/06/08, 15:00,  22.0,  70,  19.5,  16.1,  14.6,   0.0,  2.83, 
 01/06/08, 16:00,  20.1,  79,  19.7,  16.3,  14.6,   0.0,  2.59, 
 01/06/08, 17:00,  17.6,  87,  20.1,  16.5,  14.6,   0.0,  1.25, 
 01/06/08, 18:00,  16.5,  91,  20.1,  16.6,  14.6,   0.0,  0.67, 
 01/06/08, 19:00,  14.9,  97,  19.8,  16.8,  14.6,   0.0,  0.07, 
 01/06/08, 20:00,  14.5,  99,  19.4,  16.9,  14.6,   0.0,  0.00, 
 01/06/08, 21:00,  14.6,  99,  18.9,  16.9,  14.6,   0.0,  0.00, 
 01/06/08, 22:00,  14.5,  99,  18.6,  17.1,  14.6,   0.0,  0.00, 
 01/06/08, 23:00,  14.3,  99,  18.2,  17.1,  14.6,   0.0,  0.00, 
 01/06/09, 00:00,  14.4,  99,  18.0,  16.9,  14.6,   0.0,  0.00, 
 01/06/09, 01:00,  14.0,  99,  17.7,  17.0,  14.6,   0.0,  0.00, 
 01/06/09, 02:00,  14.4,  99,  17.6,  17.0,  14.7,   0.0,  0.00, 
 01/06/09, 03:00,  13.8,  99,  17.3,  16.8,  14.7,   0.0,  0.00, 
 01/06/09, 04:00,  13.5,  99,  17.1,  16.8,  14.7,   0.0,  0.00, 
 01/06/09, 05:00,  12.5,  99,  16.9,  16.8,  14.7,   0.0,  0.00, 
 01/06/09, 06:00,  13.8,  99,  16.7,  16.7,  14.8,   0.0,  0.15, 
 01/06/09, 07:00,  15.0,  97,  16.6,  16.6,  14.8,   0.0,  0.64, 
 01/06/09, 08:00,  14.7,  97,  16.8,  16.5,  14.8,   0.0,  0.96, 
 01/06/09, 09:00,  16.8,  92,  16.9,  16.5,  14.8,   0.0,  1.97, 
 01/06/09, 10:00,  18.0,  87,  17.4,  16.4,  14.8,   0.0,  1.96, 
 01/06/09, 11:00,  18.5,  81,  18.0,  16.4,  15.0,   0.0,  2.00, 
 01/06/09, 12:00,  20.0,  71,  18.5,  16.5,  15.0,   0.0,  2.48, 
 01/06/09, 13:00,  21.3,  62,  19.4,  16.6,  15.0,   0.0,  2.88, 
 01/06/09, 14:00,  22.6,  64,  19.8,  16.7,  15.0,   0.0,  2.78, 
 01/06/09, 15:00,  21.2,  73,  20.0,  16.9,  15.0,   0.0,  2.39, 
 01/06/09, 16:00,  20.8,  76,  20.1,  17.0,  15.0,   0.0,  0.98, 
 01/06/09, 17:00,  19.7,  80,  20.1,  17.2,  15.0,   0.0,  0.87, 
 01/06/09, 18:00,  16.6,  99,  20.1,  17.3,  15.0,   0.0,  0.19, 
 01/06/09, 19:00,  15.2,  99,  19.8,  17.4,  15.0,   1.0,  0.09, 
 01/06/09, 20:00,  15.2,  99,  19.5,  17.5,  15.1,   0.0,  0.00, 
 01/06/09, 21:00,  15.0,  99,  19.0,  17.6,  15.0,   0.0,  0.00, 
 01/06/09, 22:00,  15.1,  99,  18.7,  17.6,  15.0,   0.0,  0.00, 
 01/06/09, 23:00,  14.9,  99,  18.4,  17.6,  15.0,   0.0,  0.00, 
 01/06/10, 00:00,  14.7,  99,  18.2,  17.5,  15.0,   0.0,  0.00, 
 01/06/10, 01:00,  14.6,  99,  18.0,  17.5,  15.1,   0.0,  0.00, 
 01/06/10, 02:00,  14.2,  99,  17.8,  17.4,  15.1,   0.0,  0.00, 
 01/06/10, 03:00,  14.0,  99,  17.6,  17.2,  15.1,   0.0,  0.00, 
 01/06/10, 04:00,  13.9,  99,  17.4,  17.2,  15.2,   0.0,  0.00, 
 01/06/10, 05:00,  13.8,  99,  17.2,  17.2,  15.2,   0.0,  0.00, 
 01/06/10, 06:00,  13.9,  99,  17.1,  17.0,  15.2,   0.0,  0.22, 
 01/06/10, 07:00,  14.3,  99,  17.0,  16.9,  15.2,   0.0,  0.25, 
 01/06/10, 08:00,  14.1,  99,  16.9,  17.0,  15.3,   0.0,  0.34, 
 01/06/10, 09:00,  16.0,  93,  17.0,  16.8,  15.2,   0.0,  1.38, 
 01/06/10, 10:00,  18.0,  84,  17.4,  16.8,  15.3,   0.0,  1.92, 
 01/06/10, 11:00,  18.2,  84,  18.0,  16.8,  15.4,   0.0,  2.56, 
 01/06/10, 12:00,  18.6,  85,  18.8,  16.8,  15.4,   0.0,  1.89, 
 01/06/10, 13:00,  17.7,  82,  19.4,  16.8,  15.4,   0.0,  1.35, 
 01/06/10, 14:00,  17.7,  81,  19.6,  17.0,  15.4,   0.0,  1.77, 
 01/06/10, 15:00,  14.7,  99,  19.7,  17.2,  15.4,  10.5,  0.34, 
 01/06/10, 16:00,  15.3,  99,  19.3,  17.3,  15.4,   2.5,  0.38, 
 01/06/10, 17:00,  15.2,  99,  19.0,  17.5,  15.4,   0.0,  0.86, 
 01/06/10, 18:00,  15.0,  99,  18.9,  17.5,  15.5,   0.0,  0.19, 
 01/06/10, 19:00,  14.2,  99,  18.6,  17.6,  15.4,   0.0,  0.12, 
 01/06/10, 20:00,  14.5,  95,  18.4,  17.6,  15.4,   0.0,  0.00, 
 01/06/10, 21:00,  13.6,  98,  18.0,  17.5,  15.4,   0.5,  0.00, 
 01/06/10, 22:00,  11.9,  99,  17.7,  17.5,  15.6,   0.0,  0.00, 
 01/06/10, 23:00,  12.3,  98,  17.3,  17.4,  15.5,   0.0,  0.00, 
 01/06/11, 00:00,  11.3,  99,  16.9,  17.4,  15.5,   0.0,  0.00, 
 01/06/11, 01:00,  10.6,  99,  16.6,  17.2,  15.5,   0.0,  0.00, 
 01/06/11, 02:00,  10.2,  99,  16.4,  17.0,  15.5,   0.0,  0.00, 
 01/06/11, 03:00,  10.6,  99,  16.1,  16.9,  15.6,   0.0,  0.00, 
 01/06/11, 04:00,  11.1,  99,  15.9,  16.8,  15.6,   0.0,  0.00, 
 01/06/11, 05:00,  10.9,  99,  15.7,  16.8,  15.6,   0.0,  0.00, 
 01/06/11, 06:00,  11.3,  99,  15.6,  16.6,  15.6,   0.0,  0.20, 
 01/06/11, 07:00,  12.4,  95,  15.4,  16.5,  15.6,   0.0,  0.79, 
 01/06/11, 08:00,  12.6,  89,  15.6,  16.4,  15.6,   0.0,  1.28, 
 01/06/11, 09:00,  15.3,  82,  15.9,  16.3,  15.6,   0.0,  2.22, 
 01/06/11, 10:00,  16.7,  72,  16.5,  16.2,  15.6,   0.0,  2.42, 
 01/06/11, 11:00,  15.9,  68,  17.4,  16.2,  15.6,   0.0,  2.59, 
 01/06/11, 12:00,  17.3,  57,  18.3,  16.3,  15.5,   0.0,  2.62, 
 01/06/11, 13:00,  17.6,  60,  19.4,  16.4,  15.5,   0.0,  2.87, 
 01/06/11, 14:00,  16.3,  69,  19.7,  16.6,  15.5,   0.0,  2.22, 
 01/06/11, 15:00,  16.6,  63,  19.6,  16.8,  15.5,   0.0,  3.19, 
 01/06/11, 16:00,  15.4,  76,  19.7,  16.9,  15.5,   0.0,  2.69, 
 01/06/11, 17:00,  14.7,  80,  20.0,  17.1,  15.5,   0.0,  1.72, 
 01/06/11, 18:00,  12.3,  89,  19.8,  17.2,  15.5,   0.0,  0.80, 
 01/06/11, 19:00,  10.9,  96,  19.4,  17.3,  15.5,   0.0,  0.15, 
 01/06/11, 20:00,   9.5,  99,  18.8,  17.4,  15.5,   0.0,  0.00, 
 01/06/11, 21:00,   9.7,  99,  18.3,  17.4,  15.5,   0.0,  0.00, 
 01/06/11, 22:00,   9.0,  99,  17.8,  17.4,  15.5,   0.0,  0.00, 
 01/06/11, 23:00,   8.6,  99,  17.4,  17.4,  15.5,   0.0,  0.00, 
 01/06/12, 00:00,   8.3,  99,  17.1,  17.2,  15.5,   0.0,  0.00, 
 01/06/12, 01:00,   8.1,  99,  16.7,  17.1,  15.5,   0.0,  0.00, 
 01/06/12, 02:00,   6.8,  99,  16.4,  17.0,  15.6,   0.0,  0.00, 
 01/06/12, 03:00,   4.8,  99,  16.1,  16.9,  15.6,   0.0,  0.00, 
 01/06/12, 04:00,   5.7,  99,  15.7,  16.8,  15.6,   0.0,  0.00, 
 01/06/12, 05:00,   4.9,  99,  15.3,  16.6,  15.6,   0.0,  0.00, 
 01/06/12, 06:00,   8.8,  75,  14.9,  16.6,  15.6,   0.0,  0.28, 
 01/06/12, 07:00,  11.9,  59,  14.7,  16.4,  15.6,   0.0,  1.02, 
 01/06/12, 08:00,  12.3,  66,  14.8,  16.3,  15.6,   0.0,  1.83, 
 01/06/12, 09:00,  13.7,  76,  15.3,  16.0,  15.6,   0.0,  1.66, 
 01/06/12, 10:00,  14.7,  68,  15.7,  15.9,  15.6,   0.0,  2.49, 
 01/06/12, 11:00,  16.2,  48,  16.5,  15.9,  15.6,   0.0,  3.24, 
 01/06/12, 12:00,  17.4,  39,  17.8,  16.0,  15.6,   0.0,  3.59, 
 01/06/12, 13:00,  18.6,  30,  19.1,  16.1,  15.5,   0.0,  3.59, 
 01/06/12, 14:00,  18.7,  42,  19.7,  16.3,  15.5,   0.0,  2.73, 
 01/06/12, 15:00,  18.9,  54,  19.6,  16.5,  15.5,   0.0,  1.90, 
 01/06/12, 16:00,  17.5,  58,  19.6,  16.8,  15.5,   0.0,  1.13, 
 01/06/12, 17:00,  16.6,  68,  19.5,  16.8,  15.5,   0.0,  0.86, 
 01/06/12, 18:00,  14.5,  75,  19.3,  17.1,  15.5,   0.0,  0.29, 
 01/06/12, 19:00,  13.6,  80,  18.9,  17.2,  15.5,   0.0,  0.10, 
 01/06/12, 20:00,  11.6,  91,  18.5,  17.3,  15.5,   0.0,  0.00, 
 01/06/12, 21:00,  12.5,  80,  18.1,  17.3,  15.5,   0.0,  0.00, 
 01/06/12, 22:00,  11.4,  88,  17.7,  17.2,  15.5,   0.0,  0.00, 
 01/06/12, 23:00,  12.3,  86,  17.3,  17.2,  15.5,   0.0,  0.00, 
 01/06/13, 00:00,  12.4,  87,  17.0,  17.2,  15.5,   0.0,  0.00, 
 01/06/13, 01:00,  13.1,  84,  16.8,  17.1,  15.5,   0.0,  0.00, 
 01/06/13, 02:00,  12.1,  90,  16.6,  16.9,  15.5,   0.0,  0.00, 
 01/06/13, 03:00,  11.4,  80,  16.2,  16.8,  15.5,   0.0,  0.00, 
 01/06/13, 04:00,  11.4,  75,  16.0,  16.8,  15.5,   0.0,  0.00, 
 01/06/13, 05:00,  12.0,  72,  15.7,  16.6,  15.6,   0.0,  0.00, 
 01/06/13, 06:00,  12.7,  72,  15.5,  16.6,  15.6,   0.0,  0.15, 
 01/06/13, 07:00,  14.6,  67,  15.4,  16.5,  15.6,   0.0,  0.78, 
 01/06/13, 08:00,  15.4,  70,  15.6,  16.3,  15.6,   0.0,  1.20, 
 01/06/13, 09:00,  16.4,  63,  15.9,  16.3,  15.6,   0.0,  2.06, 
 01/06/13, 10:00,  17.7,  63,  16.6,  16.2,  15.6,   0.0,  2.24, 
 01/06/13, 11:00,  18.0,  72,  17.2,  16.2,  15.5,   0.0,  2.18, 
 01/06/13, 12:00,  18.1,  69,  17.9,  16.2,  15.5,   0.0,  2.23, 
 01/06/13, 13:00,  18.8,  67,  18.5,  16.3,  15.5,   0.0,  1.91, 
 01/06/13, 14:00,  19.9,  66,  18.9,  16.5,  15.5,   0.0,  2.59, 
 01/06/13, 15:00,  19.0,  73,  19.1,  16.6,  15.5,   0.0,  1.46, 
 01/06/13, 16:00,  16.7,  83,  19.4,  16.8,  15.5,   0.0,  0.70, 
 01/06/13, 17:00,  15.5,  92,  19.3,  16.8,  15.5,   0.0,  0.24, 
 01/06/13, 18:00,  14.6,  99,  18.9,  17.1,  15.5,   0.0,  0.12, 
 01/06/13, 19:00,  14.5,  99,  18.6,  17.1,  15.5,   0.0,  0.00, 
 01/06/13, 20:00,  13.8,  99,  18.3,  17.2,  15.5,   0.0,  0.00, 
 01/06/13, 21:00,  13.9,  99,  18.0,  17.2,  15.5,   0.0,  0.00, 
 01/06/13, 22:00,  13.4,  99,  17.7,  17.1,  15.5,   0.0,  0.00, 
 01/06/13, 23:00,  13.2,  99,  17.5,  17.1,  15.5,   0.0,  0.00, 
 01/06/14, 00:00,  13.4,  99,  17.3,  17.1,  15.5,   0.0,  0.00, 
 01/06/14, 01:00,  12.4,  99,  17.1,  17.1,  15.5,   1.0,  0.00, 
 01/06/14, 02:00,  11.3,  99,  16.8,  16.9,  15.6,   2.0,  0.00, 
 01/06/14, 03:00,  11.4,  99,  16.6,  16.9,  15.6,   1.0,  0.00, 
 01/06/14, 04:00,  11.0,  99,  16.3,  16.8,  15.6,   0.5,  0.00, 
 01/06/14, 05:00,  10.6,  99,  16.1,  16.8,  15.6,   1.5,  0.00, 
 01/06/14, 06:00,  10.7,  99,  15.9,  16.7,  15.6,   2.0,  0.00, 
 01/06/14, 07:00,  11.2,  99,  15.6,  16.6,  15.6,   3.0,  0.15, 
 01/06/14, 08:00,  11.3,  99,  15.5,  16.5,  15.6,   2.0,  0.21, 
 01/06/14, 09:00,  11.1,  99,  15.4,  16.4,  15.6,   3.0,  0.25, 
 01/06/14, 10:00,  11.5,  99,  15.3,  16.3,  15.6,   3.0,  0.34, 
 01/06/14, 11:00,  11.7,  99,  15.3,  16.1,  15.7,   2.0,  0.50, 
 01/06/14, 12:00,  11.9,  99,  15.3,  16.1,  15.7,   3.0,  0.46, 
 01/06/14, 13:00,  12.1,  99,  15.4,  15.9,  15.7,   3.5,  0.42, 
 01/06/14, 14:00,  12.3,  99,  15.4,  15.8,  15.7,   1.5,  0.58, 
 01/06/14, 15:00,  12.7,  99,  15.5,  15.8,  15.6,   1.0,  0.34, 
 01/06/14, 16:00,  13.4,  99,  15.6,  15.7,  15.6,   0.5,  0.35, 
 01/06/14, 17:00,  13.1,  99,  15.7,  15.7,  15.6,   0.0,  0.21, 
 01/06/14, 18:00,  14.1,  99,  15.7,  15.7,  15.6,   0.0,  0.15, 
 01/06/14, 19:00,  13.8,  99,  15.7,  15.7,  15.6,   0.0,  0.00, 
 01/06/14, 20:00,  13.7,  99,  15.7,  15.7,  15.6,   0.5,  0.00, 
 01/06/14, 21:00,  13.7,  99,  15.6,  15.7,  15.6,   0.0,  0.00, 
 01/06/14, 22:00,  13.6,  99,  15.5,  15.7,  15.6,   0.5,  0.00, 
 01/06/14, 23:00,  14.5,  99,  15.5,  15.7,  15.5,   0.0,  0.00, 
 01/06/15, 00:00,  14.6,  99,  15.4,  15.6,  15.5,   0.5,  0.00, 
 01/06/15, 01:00,  14.5,  99,  15.4,  15.6,  15.5,   2.0,  0.00, 
 01/06/15, 02:00,  13.7,  99,  15.3,  15.6,  15.5,   4.0,  0.00, 
 01/06/15, 03:00,  13.3,  99,  15.3,  15.6,  15.5,   3.5,  0.00, 
 01/06/15, 04:00,  13.6,  99,  15.2,  15.6,  15.5,   3.0,  0.00, 
 01/06/15, 05:00,  13.7,  99,  15.1,  15.6,  15.5,   1.5,  0.00, 
 01/06/15, 06:00,  13.8,  99,  15.0,  15.5,  15.4,   1.5,  0.00, 
 01/06/15, 07:00,  13.8,  99,  15.0,  15.5,  15.4,   1.0,  0.06, 
 01/06/15, 08:00,  14.2,  99,  15.0,  15.5,  15.4,   1.0,  0.20, 
 01/06/15, 09:00,  14.5,  99,  15.1,  15.3,  15.4,   1.5,  0.27, 
 01/06/15, 10:00,  13.5,  99,  15.2,  15.3,  15.4,   0.5,  0.33, 
 01/06/15, 11:00,  12.9,  99,  15.2,  15.3,  15.4,   2.5,  0.19, 
 01/06/15, 12:00,  12.8,  99,  15.3,  15.3,  15.4,   2.0,  0.82, 
 01/06/15, 13:00,  12.8,  99,  15.4,  15.3,  15.3,   0.5,  0.42, 
 01/06/15, 14:00,  13.1,  99,  15.5,  15.3,  15.3,   0.0,  0.53, 
 01/06/15, 15:00,  12.4,  99,  15.6,  15.4,  15.3,   0.5,  0.26, 
 01/06/15, 16:00,  12.7,  99,  15.6,  15.3,  15.3,   0.0,  0.36, 
 01/06/15, 17:00,  12.0,  99,  15.6,  15.4,  15.3,   0.0,  0.16, 
 01/06/15, 18:00,  11.7,  99,  15.5,  15.4,  15.3,   0.0,  0.03, 
 01/06/15, 19:00,  11.4,  99,  15.4,  15.5,  15.3,   0.0,  0.00, 
 01/06/15, 20:00,  11.3,  99,  15.3,  15.4,  15.3,   0.0,  0.00, 
 01/06/15, 21:00,  11.2,  99,  15.1,  15.3,  15.2,   0.0,  0.00, 
 01/06/15, 22:00,  11.2,  99,  15.0,  15.3,  15.2,   0.5,  0.00, 
 01/06/15, 23:00,  11.0,  99,  14.9,  15.3,  15.2,   0.0,  0.00, 
 01/06/16, 00:00,  10.9,  99,  14.8,  15.3,  15.2,   0.0,  0.00, 
 01/06/16, 01:00,  10.8,  99,  14.7,  15.2,  15.2,   0.0,  0.00, 